Ibrahim Soliman

Chefscout - Ismaily
22 Feb 2027
Montag
Verarbeitung

Persönlichkeit

Anpassungsfähigkeit (7) Ehrgeiz (14) Kontroverse (12) Loyalität (8) Druck (13) Professionalität (13) Fairness (8) Temperament (13)

Profil

Trainerstil Demokratisch
Lizenz Nationale B
Entschlossenheit 10
Menschenführung 9
Motivation 6
Disziplin 5
Arbeitszufriedenheit
79%
Ermüdung
0%
Rolle Chefscout
Gehalt 51.6K p/W
Vertrag 14.03.2028

Leistung

Verhalten Gut
Trainingseffektivität
29%
Spielerentwicklung
60%
Verletzungsprävention
40%
Taktische Umsetzung
45%

Letzte Ereignisse

Nahm an einer Scouting-Besprechung teil jetzt
Nahm an einer Scouting-Besprechung teil jetzt
Nahm an einer Scouting-Besprechung teil jetzt
Spieler begutachtet jetzt
Spieler begutachtet jetzt
Spieler begutachtet jetzt
Spiel beobachtet jetzt
Spieler begutachtet 7T her

Aktuell beobachtet

137
Spieler Verein Status Fähigkeit Vertrauen Beobachtet Zuletzt beobachtet Letzte Stimme
Giorgos Giakoumakis Al Ain Aktiv 130 / 125 40% 4 20.02.2027 -
Stephen Odey Ittihad Aktiv 114 / 111 40% 6 19.02.2027 -
Mohanad Ali Dibba Aktiv 125 / 118 40% 5 18.02.2027 -
Marcus Browne AFC Wimbledon Aktiv 116 / 106 40% 1 18.02.2027 -
Zakaria Naïdji MC Alger Aktiv 112 / 110 40% 3 16.02.2027 -
Martín Álvarez Barnsley Aktiv 119 / 118 40% 1 16.02.2027 -
Kingsley Eduwo El Masry Aktiv 91 / 97 40% 3 13.02.2027 -
Isaac Tshibangu Emirates Club Aktiv 115 / 91 40% 5 12.02.2027 -
Fábio Tavares Newport County Aktiv 96 / 102 40% 1 12.02.2027 -
Caio Lucas Al Ain Aktiv 127 / 135 40% 4 10.02.2027 -
Firas Ben Larbi Sharjah Aktiv 112 / 119 40% 6 01.02.2027 -
Kahraba ENPPI Aktiv 108 / 105 40% 2 01.02.2027 -
Shokry Naguib Arab Contractors Aktiv 100 / 98 40% 2 25.01.2027 -
Rafael Arace Najran Aktiv 92 / 109 40% 1 25.01.2027 -
Aaron Drinan Swindon Town Aktiv 110 / 103 40% 1 18.01.2027 -
Tyrese Shade Burton Albion Aktiv 106 / 98 40% 1 18.01.2027 -
Radek Šiler Podbrezova Aktiv 92 / 124 40% 4 16.01.2027 -
John Okoye Ebuka Ittihad Aktiv 127 / 118 40% 8 15.01.2027 -
Silvère Ganvoula Al-Fayha Aktiv 130 / 107 40% 1 15.01.2027 -
Chico Banza Zamalek Aktiv 123 / 122 40% 5 13.01.2027 -
Themba Manyama Ajax Cape Town Aktiv 96 / 106 40% 3 11.01.2027 -
Andrigo Dibba Aktiv 110 / 113 40% 1 11.01.2027 -
Álvaro Medrán Al-Ettifaq Aktiv 145 / 127 40% 5 08.01.2027 -
Ali Saleh Al Wasl Aktiv 125 / 113 40% 1 08.01.2027 -
Erick Ngcobo Black Aces Aktiv 108 / 114 40% 2 05.01.2027 -
Ali Soliman Masr El Makasa Aktiv 125 / 121 40% 1 05.01.2027 -
Moses Twum Haras El Hodoud Aktiv 87 / 100 40% 3 31.12.2026 -
Marcelo Flores Tigres Abgelehnt 104 / 112 40% 3 29.12.2026 Ablehnen
Sory Kaba Al Dhafra Aktiv 109 / 114 40% 2 29.12.2026 -
Fethallah Tahar Olympique Akbou Aktiv 96 / 105 40% 4 28.12.2026 -
Valentín Vada Damac Aktiv 122 / 112 40% 5 28.12.2026 -
Ismail Saadi JS Saoura Aktiv 103 / 103 40% 2 28.12.2026 -
Mohammed Al-Dossary Al-Ra'ed Aktiv 88 / 91 40% 1 28.12.2026 -
Isaac Success Al Shaab Aktiv 113 / 123 40% 7 26.12.2026 -
Saeed Al-Hamsal Al-Khaleej Aktiv 98 / 117 40% 1 26.12.2026 -
Richard Akonnor Al Jazira Aktiv 126 / 102 40% 1 26.12.2026 -
Qara Ozobic Inter Aktiv 107 / 102 40% 1 25.12.2026 -
Chris Bedia Al Nasr Aktiv 116 / 134 40% 2 24.12.2026 -
Carlos Paraco Metalist Aktiv 128 / 124 40% 1 24.12.2026 -
Ihor Krasnopir Polissia Aktiv 121 / 101 40% 1 22.12.2026 -
Darwin González Al-Wehda Aktiv 122 / 123 40% 2 21.12.2026 -
Dániel Lukács Puskas Akademia Aktiv 103 / 112 40% 3 20.12.2026 -
Alfa Semedo Al-Fayha Aktiv 122 / 112 40% 4 19.12.2026 -
Ben Ahmed Kohili Paradou Aktiv 94 / 106 40% 1 19.12.2026 -
Sam Nombe Milton Keynes Dons Aktiv 96 / 112 40% 1 18.12.2026 -
Achraf Bencharki Al Ahly Aktiv 135 / 124 40% 4 16.12.2026 -
Karim El Berkaoui Al Dhafra Aktiv 130 / 110 40% 8 14.12.2026 -
Tiago Pucciarelli FK Senica Aktiv 84 / 109 40% 1 11.12.2026 -
Omar Khribin Al Wahda Aktiv 149 / 117 40% 5 10.12.2026 -
Tin Jedvaj Al-Shabab Aktiv 99 / 121 40% 2 10.12.2026 -
Merwane Khelif MC Alger Aktiv 116 / 112 40% 1 10.12.2026 -
Alimi Sikiru JS Saoura Aktiv 104 / 108 40% 2 09.12.2026 -
Edarlyn Reyes Arsenal Tula Aktiv 102 / 91 40% 1 09.12.2026 -
Danyil Alefirenko Chornomorets Aktiv 120 / 104 40% 1 07.12.2026 Mehr Infos nötig
Rodin Quiñónes Dinamo Batumi Aktiv 105 / 102 40% 3 05.12.2026 -
Felix Kudus Hasaacas Aktiv 113 / 108 40% 1 05.12.2026 -
Abdullah Al-Yousif Al-Ra'ed Aktiv 96 / 93 40% 1 03.12.2026 -
Mehdi Boudjemaa CR Belouizdad Aktiv 118 / 113 40% 1 03.12.2026 -
Madallah Al-Olayan Al-Ettifaq Aktiv 92 / 121 40% 1 30.11.2026 -
Luke Baartman Chippa United Aktiv 94 / 123 40% 1 27.11.2026 -
Roger Martínez Al-Shabab Aktiv 133 / 126 40% 1 25.11.2026 -
Kristian Eriksen Molde Aktiv 142 / 125 40% 2 24.11.2026 -
Wandile Duba Bidvest Wits Aktiv 120 / 114 40% 2 23.11.2026 -
Taher Mohamed Al Ahly Aktiv 109 / 130 40% 1 23.11.2026 -
Wesley Hoedt Al-Shabab Aktiv 111 / 140 40% 1 20.11.2026 -
Gláuber Al Nasr Aktiv 127 / 123 40% 1 20.11.2026 -
Jobson Al Dhafra Aktiv 124 / 130 40% 1 19.11.2026 -
Hamdi Labidi Olympique Akbou Aktiv 91 / 100 40% 2 17.11.2026 -
Morad Khodari Al-Wehda Aktiv 86 / 107 40% 1 17.11.2026 -
Andreas Gruber DAC Dunajska Streda Aktiv 118 / 115 40% 1 15.11.2026 -
Ibrahim Tarek Masr El Makasa Aktiv 137 / 126 40% 1 15.11.2026 -
Juanjo Narváez Al-Ra'ed Aktiv 119 / 104 40% 3 12.11.2026 Beobachten
Lebogang Zwane Black Aces Aktiv 105 / 112 40% 2 11.11.2026 -
Cho Yu-Min Sharjah Aktiv 101 / 104 40% 1 11.11.2026 -
Ousmane Camara Sharjah Aktiv 107 / 104 40% 2 08.11.2026 -
Mahmoud El Wensh Zamalek Aktiv 119 / 116 40% 1 07.11.2026 -
Ezeckiel Noumonvi Al Dhafra Aktiv 91 / 105 40% 1 05.11.2026 -
Ahmed Sharahili Al-Ittihad Aktiv 128 / 108 40% 1 05.11.2026 -
Kurt Zouma Al Wasl Aktiv 118 / 138 40% 1 04.11.2026 -
Dino Halilović Al-Wehda Aktiv 111 / 94 40% 1 04.11.2026 -
Ali Suqrat Al Shaab Aktiv 101 / 115 40% 1 01.11.2026 -
Franck Boli Wadi Degla Aktiv 108 / 118 40% 1 29.10.2026 -
Abdulmalik Al-Jaber Al-Nassr Aktiv 107 / 106 40% 1 28.10.2026 -
Maro Katinić Sharjah Aktiv 122 / 114 40% 1 28.10.2026 -
David Barbona Defensa y Justicia Aktiv 121 / 134 40% 2 24.10.2026 -
Bruno Al Jazira Aktiv 115 / 99 40% 1 24.10.2026 -
Walid Hassan Al Shabab Aktiv 115 / 115 40% 1 20.10.2026 -
Ondrej Duda Zamalek Aktiv 148 / 130 40% 1 20.10.2026 -
Mohamed Sherif Al Ahly Aktiv 115 / 100 40% 3 18.10.2026 -
Chinedu Geoffrey Krylya Sovetov Aktiv 124 / 107 40% 1 18.10.2026 -
Saymon Dibba Aktiv 90 / 111 40% 1 18.10.2026 -
Victor Mbaoma Tusker Aktiv 85 / 81 40% 2 16.10.2026 -
Abdullah Al-Khaibari Al-Nassr Aktiv 126 / 103 40% 1 15.10.2026 -
Kagiso Malinga Bidvest Wits Aktiv 94 / 95 40% 2 14.10.2026 -
Marwan Ateya Al Ahly Aktiv 118 / 132 40% 2 09.10.2026 -
Abdulkarim Darisi Al-Hilal Aktiv 113 / 121 40% 1 08.10.2026 -
Albert Amoah Hajer Aktiv 83 / 114 40% 1 05.10.2026 -
Wilder Cartagena Persepolis Aktiv 143 / 134 40% 1 05.10.2026 -
Mohamed Kanno Al-Hilal Aktiv 127 / 134 40% 1 05.10.2026 -
Mackenzie Hunt Baniyas Aktiv 92 / 104 40% 2 02.10.2026 -
Yanis Hamache MC Oran Aktiv 114 / 111 40% 1 02.10.2026 -
Wilfried Eza Al-Faisaly Aktiv 81 / 113 40% 2 30.09.2026 -
Ali Adnan Al-Wehda Aktiv 117 / 95 40% 2 29.09.2026 -
Zinho Gano Al-Ra'ed Aktiv 111 / 106 40% 4 29.09.2026 -
Alfredo Garcia La Equidad Aktiv 147 / 151 40% 1 29.09.2026 -
Sultan Al-Ghannam Al-Nassr Aktiv 116 / 129 40% 2 26.09.2026 -
Ramadan Mohsen Zamalek Aktiv 110 / 132 40% 1 26.09.2026 -
Evidence Mokoena Platinum Stars Aktiv 91 / 89 40% 1 23.09.2026 -
Ramiro Ruiz Rodríguez Atlético Tucumán Aktiv 138 / 112 40% 2 21.09.2026 -
Saeed Baattia Al-Fateh Aktiv 113 / 100 40% 1 21.09.2026 -
Renato Júnior Al Wasl Aktiv 130 / 108 40% 1 19.09.2026 -
Riad Benayad ES Setif Aktiv 94 / 110 40% 3 18.09.2026 -
Fahad Al-Zubaidi Al-Fateh Aktiv 106 / 116 40% 2 16.09.2026 -
Nicolás Giménez Al Wasl Aktiv 111 / 126 40% 1 16.09.2026 -
Ahmed Mohamed Kerroum MC Oran Aktiv 97 / 94 40% 1 16.09.2026 -
Facundo Kruspzky Al Wahda Aktiv 116 / 113 40% 1 14.09.2026 -
Lucas Souto Defensa y Justicia Aktiv 142 / 125 40% 1 13.09.2026 -
Leandrinho Emirates Club Aktiv 104 / 112 40% 1 13.09.2026 -
Ahmed Fatouh Zamalek Aktiv 116 / 131 40% 1 11.09.2026 -
Hicham Khaloua Al-Ra'ed Aktiv 87 / 116 40% 1 09.09.2026 -
Salem Al Kamali Al Jazira Aktiv 101 / 110 40% 1 06.09.2026 -
Abdoulaye Touré Al Nasr Aktiv 101 / 111 40% 1 04.09.2026 -
Richard Figueroa Deportivo Lara Aktiv 108 / 92 40% 1 03.09.2026 -
Lebo Mothiba Mamelodi Sundowns Aktiv 110 / 112 40% 1 01.09.2026 -
Amer Ismail Al Ahli Aktiv 126 / 101 40% 1 31.08.2026 -
Siaka Sidibé Al Wasl Aktiv 131 / 130 40% 1 31.08.2026 -
Mohamed Ali Ben Hammouda CR Belouizdad Aktiv 93 / 112 40% 1 31.08.2026 -
Marcelo Torres Gimnasia La Plata Aktiv 137 / 131 40% 3 29.08.2026 -
Mohammed Al-Khabrani Al-Khaleej Aktiv 121 / 92 40% 1 28.08.2026 -
Muteb Al-Mufarrij Al-Taawoun Aktiv 117 / 99 40% 1 28.08.2026 -
Solomon Tweh Al-Ra'ed Aktiv 110 / 119 40% 1 28.08.2026 -
Nasser Al Shamsi Al Shabab Aktiv 111 / 138 40% 1 28.08.2026 -
Léo Azevedo Sharjah Aktiv 115 / 111 40% 1 22.08.2026 -
Yousef Al-Shammari Al-Faisaly Aktiv 81 / 107 40% 1 19.08.2026 -
Ahmed Ali Amin Smouha Aktiv 72 / 82 51% 1 17.08.2026 -
Youssef Hassan Al Shabab Aktiv 128 / 126 40% 1 05.08.2026 -
Rodrigo Bogarín Barracas Central Aktiv 134 / 111 40% 1 01.08.2026 -